Location: Chèvreville
(49.1099°N, 2.8495°E)
Time: 12:30:29
(UTC+00:00)

BlueWalker 3 - Pass Details

Date: 30 January 2026
Orbit: 450 x 461 km, 53.2° (Epoch: 11 February)

Event Time Altitude Azimuth Distance (km) Brightness Sun altitude
Rises 18:29:03 0° 283° (WNW) 2,459 6.8 -17.5°
Reaches altitude 10° 18:31:16 10° 290° (WNW) 1,586 5.4 -17.9°
Maximum altitude 18:34:40 41° 2° (N) 667 2.4 -18.4°
Enters shadow 18:35:08 39° 25° (NNE) 696 2.4 -18.5°
